Location: Borea
(45.6167°N, 23.0167°E)
Time: 10:12:27
(UTC+00:00)

Okean O Rocket - Pass Details

Date: 03 February 2023
Orbit: 621 x 643 km, 98.2° (Epoch: 20 March)

Event Time Altitude Azimuth Distance (km) Brightness Sun altitude
Rises 16:02:54 0° 111° (ESE) 2,920 4.5 -5.1°
Reaches altitude 10° 16:06:24 10° 81° (E) 2,024 3.5 -5.7°
Maximum altitude 16:08:05 12° 58° (ENE) 1,890 3.4 -6.0°
Drops below altitude 10° 16:09:48 10° 35° (NE) 2,034 3.7 -6.3°
Sets 16:13:19 0° 6° (N) 2,955 4.8 -6.9°
